パロマー彗星

C/2012 LP26 ( Palomar )

English version
Home page
Updated on September 22, 2018

---------------------------------------------------------------------

・ プロフィール

発見日 2012年6月10日
発見光度 20.8等
発見者 Palomar Transient Factory program

・ 写真集

・ 軌道要素

Epoch 2015 Aug. 6.0 TT = JDT 2457240.5
T 2015 Aug. 16.60758 TT                                 MPCW
q   6.5360520            (2000.0)            P               Q
z  +0.0001229      Peri.  145.15587     +0.51118174     +0.83866460
 +/-0.0000004      Node   153.98760     -0.85327520     +0.52142663
e   0.9991969      Incl.   25.37971     -0.10302752     -0.15734030
From 393 observations 2012 May 23-2018 Jan. 5, mean residual 0".5.

・ 光度変化

        m1 = 3.7 + 5 logΔ + 12.0 log r(t - 70)

---------------------------------------------------------------------

軌道要素はM.P.E.C. 2018-B155に掲載されたものです。
光度グラフはComet for Windowsで作成したものです。

---------------------------------------------------------------------

Copyright(C) Seiichi Yoshida (comet@aerith.net). All rights reserved.